G3ZSS Weather Reports


time (UTC)temp
C
wind
direction
speed
KPH
gust
KPH
rain 1hr
cm
rain 24hr
cm
rain mn
cm
humidity
%
barometer
mb
20260506051004 9 308 3.2 4.8 0.00 0.00 0.00 83 1012.1
20260506045004 9 298 3.2 11.3 0.00 0.00 0.00 84 1012.0
20260506044003 9 315 4.8 9.7 0.00 0.00 0.00 83 1011.9
20260506043004 10 337 3.2 11.3 0.00 0.00 0.00 83 1012.0
20260506042004 10 321 3.2 4.8 0.00 0.00 0.00 83 1012.0
20260506041004 10 316 3.2 4.8 0.00 0.00 0.00 82 1011.9
20260506040004 10 321 1.6 4.8 0.00 0.00 0.00 81 1011.9
20260506034004 10 322 3.2 8.0 0.00 0.00 0.00 81 1011.8
20260506033004 10 311 1.6 4.8 0.00 0.00 0.00 81 1011.7
20260506025004 10 304 0.0 3.2 0.00 0.00 0.00 79 1011.9
20260506024003 10 311 0.0 4.8 0.00 0.00 0.00 79 1011.9
20260506023004 10 355 0.0 4.8 0.00 0.00 0.00 78 1011.9
20260506021004 11 331 1.6 4.8 0.00 0.00 0.00 80 1011.8
20260506020004 11 328 0.0 4.8 0.00 0.00 0.00 81 1011.9
20260506015004 11 298 0.0 4.8 0.00 0.00 0.00 80 1011.9
20260506014004 11 5 0.0 3.2 0.00 0.00 0.00 79 1011.9
20260506013003 11 321 0.0 3.2 0.00 0.00 0.00 79 1012.0
20260506012004 11 352 1.6 3.2 0.00 0.00 0.00 78 1012.0
20260506011003 11 314 0.0 3.2 0.00 0.00 0.00 77 1012.0
20260506010004 11 84 0.0 3.2 0.00 0.00 0.00 77 1012.0
20260506005003 11 84 1.6 4.8 0.00 0.00 0.00 77 1012.0
20260506003003 11 96 0.0 3.2 0.00 0.00 0.00 76 1012.1
20260506002003 11 96 1.6 4.8 0.00 0.00 0.00 75 1012.1
20260506001004 11 329 0.0 3.2 0.00 0.00 0.00 75 1012.1
20260506000004 11 357 1.6 4.8 0.00 0.00 0.00 74 1012.1
20260505235003 11 258 1.6 3.2 0.00 0.00 0.00 74 1012.1
20260505233004 12 76 0.0 3.2 0.00 0.00 0.00 73 1012.1
20260505232004 12 76 3.2 4.8 0.00 0.00 0.00 73 1011.9
20260505230004 12 64 1.6 4.8 0.00 0.00 0.00 74 1011.9
20260505225003 12 33 1.6 8.0 0.00 0.00 0.00 74 1011.9
20260505224003 12 79 3.2 4.8 0.00 0.00 0.00 74 1011.8
20260505221004 12 267 3.2 4.8 0.00 0.00 0.00 77 1011.5
20260505220004 12 303 3.2 8.0 0.00 0.00 0.00 77 1011.5
20260505215004 12 309 3.2 8.0 0.00 0.00 0.00 77 1011.5
20260505214004 13 322 3.2 4.8 0.00 0.00 0.00 77 1011.4
20260505212003 13 325 1.6 4.8 0.00 0.00 0.00 76 1011.5
20260505211004 13 317 1.6 4.8 0.00 0.00 0.00 76 1011.4
20260505210004 13 323 1.6 4.8 0.00 0.00 0.00 76 1011.4
20260505205003 13 306 1.6 8.0 0.00 0.00 0.00 76 1011.4
20260505203003 13 299 1.6 4.8 0.00 0.00 0.00 76 1011.3
20260505201004 13 324 1.6 4.8 0.00 0.00 0.00 75 1011.3
20260505200004 13 324 1.6 3.2 0.00 0.00 0.00 75 1011.3
20260505194004 13 325 1.6 4.8 0.00 0.00 0.00 75 1011.1
20260505193003 13 323 0.0 3.2 0.00 0.00 0.00 74 1011.0
20260505192004 14 323 1.6 4.8 0.00 0.00 0.00 74 1011.0
20260505191004 14 317 1.6 4.8 0.00 0.00 0.00 73 1010.9
20260505190004 14 324 3.2 8.0 0.00 0.00 0.00 73 1010.9
20260505185003 14 316 3.2 4.8 0.00 0.00 0.00 74 1010.8
20260505184004 14 308 3.2 4.8 0.00 0.00 0.00 74 1010.8
20260505183003 14 308 1.6 3.2 0.00 0.00 0.00 73 1010.8
20260505181004 14 308 1.6 4.8 0.00 0.00 0.00 73 1010.7
20260505180003 14 307 1.6 3.2 0.00 0.00 0.00 73 1010.8
20260505174003 14 307 3.2 4.8 0.00 0.00 0.00 72 1010.8
20260505173003 14 315 3.2 4.8 0.00 0.00 0.00 72 1010.9
20260505172004 14 317 3.2 4.8 0.00 0.00 0.00 72 1010.9
20260505171004 14 323 3.2 4.8 0.00 0.00 0.00 71 1010.9
20260505170004 15 312 3.2 4.8 0.00 0.00 0.00 71 1011.0
20260505165004 15 312 3.2 8.0 0.00 0.00 0.00 71 1011.0
20260505164003 15 319 3.2 8.0 0.00 0.00 0.00 71 1011.0
20260505163003 15 320 3.2 14.5 0.00 0.00 0.00 70 1010.9
20260505162003 15 322 4.8 11.3 0.00 0.00 0.00 70 1010.9
20260505161004 15 310 4.8 11.3 0.00 0.00 0.00 69 1010.9
20260505153004 15 317 4.8 11.3 0.00 0.00 0.00 68 1011.0
20260505152004 15 332 3.2 12.9 0.00 0.00 0.00 68 1011.0
20260505151004 15 302 6.4 14.5 0.00 0.00 0.00 68 1011.1
20260505125003 15 304 4.8 12.9 0.00 0.00 0.00 67 1011.7
20260505122003 15 304 4.8 14.5 0.00 0.00 0.00 70 1011.7
20260505121003 15 299 8.0 12.9 0.00 0.00 0.00 69 1011.7
20260505115004 15 314 6.4 16.1 0.00 0.00 0.00 69 1011.8
20260505114003 15 314 4.8 12.9 0.00 0.00 0.00 70 1011.8
20260505112004 14 306 8.0 19.3 0.00 0.00 0.00 70 1012.0
20260505111004 14 315 8.0 19.3 0.00 0.00 0.00 71 1012.0
20260505102004 15 296 4.8 12.9 0.00 0.00 0.00 70 1012.1
20260505101004 14 326 8.0 14.5 0.00 0.00 0.00 71 1012.2
20260505100003 14 317 6.4 16.1 0.00 0.00 0.00 70 1012.2
20260505095004 14 316 6.4 16.1 0.00 0.00 0.00 70 1012.2
20260505094003 15 298 3.2 19.3 0.00 0.00 0.00 70 1012.2
20260505093003 15 275 4.8 16.1 0.00 0.00 0.00 71 1012.1
20260505092004 15 320 4.8 14.5 0.00 0.00 0.00 70 1012.2
20260505091004 15 306 6.4 16.1 0.00 0.00 0.00 71 1012.2
20260505090004 14 304 4.8 14.5 0.00 0.00 0.00 72 1012.2
20260505085004 14 285 3.2 19.3 0.00 0.00 0.00 74 1012.4
20260505083004 14 314 8.0 16.1 0.00 0.00 0.00 72 1012.4
20260505082004 14 319 6.4 14.5 0.00 0.00 0.00 73 1012.3
20260505081003 14 294 3.2 11.3 0.00 0.00 0.00 75 1012.3
20260505080004 13 276 3.2 19.3 0.00 0.00 0.00 76 1012.3
20260505075003 13 315 3.2 12.9 0.00 0.00 0.00 78 1012.2
20260505074003 13 328 1.6 4.8 0.00 0.00 0.00 81 1012.2
20260505073004 13 314 1.6 8.0 0.00 0.00 0.00 84 1012.3
20260505072003 13 312 4.8 11.3 0.00 0.00 0.00 84 1012.3
20260505071004 13 295 3.2 9.7 0.00 0.00 0.00 88 1012.3
20260505070004 12 324 3.2 9.7 0.00 0.00 0.00 90 1012.4
20260505064004 11 306 1.6 4.8 0.00 0.00 0.00 91 1012.6
20260505063004 11 323 1.6 4.8 0.00 0.00 0.00 91 1012.8
20260505062004 11 327 0.0 3.2 0.00 0.00 0.00 91 1012.6
20260505061003 11 322 1.6 8.0 0.00 0.00 0.00 91 1012.7
20260505060004 11 321 3.2 8.0 0.00 0.00 0.00 91 1012.5
20260505054003 11 327 0.0 1.6 0.00 0.00 0.00 91 1012.7
20260505053004 10 327 0.0 0.0 0.00 0.00 0.00 91 1012.6